#timestamp,LO_Frequency,Hit,StdDev 
1505851215.3,286047003.2,N
1505851235.2,286047001.7,N
1505851255.9,286047005.6,N
1505851275.7,286047005.4,N
1505851295.6,286047004.7,N
1505851315.4,286047003.3,N
1505851335.2,286047005.1,N
1505851355.1,286047007.0,Y
1505851356.0,286047007.0,P
1505851375.8,286047004.3,P
1505851395.6,286047003.0,N
1505851415.5,286047005.7,Y
1505851435.3,286047000.3,P
1505851455.1,286047002.8,N
1505851475.9,286047001.0,N
1505851495.7,286046999.4,N
1505851515.5,286046995.6,N
1505851535.3,286046994.7,N
1505851555.2,286046995.3,N
1505851575.0,286046997.9,N
1505851575.9,286046997.9,N
1505851595.7,286046997.1,N
1505851615.6,286046995.3,N
1505851635.4,286046995.7,N
1505851655.2,286046993.7,N
1505851675.1,286046994.7,N
1505851676.0,286046994.7,N
1505851695.8,286046994.6,N
1505851715.6,286046993.5,N
1505851735.5,286046994.8,N
1505851755.3,286046992.4,N
1505851775.1,286046990.3,Y
1505851795.9,286046990.7,P
1505851815.7,286046993.0,N
1505851835.5,286046990.5,P
1505851855.4,286046993.8,N
1505851875.2,286046993.6,N
1505851895.0,286046996.3,N
1505851895.9,286046996.3,N
1505851915.8,286046996.1,N
1505851935.6,286046995.7,N
1505851955.4,286047000.5,N
1505851975.2,286046994.9,N
1505851995.1,286046996.0,N
1505851996.0,286046996.0,N
1505852015.8,286046992.8,N
1505852035.6,286046992.4,Y
1505852055.5,286046996.1,P
1505852075.3,286046996.4,P
1505852095.1,286046996.3,P
1505852115.9,286046995.1,Y
1505852135.7,286047002.3,P
1505852155.5,286047001.8,N
1505852175.4,286047003.5,N
1505852195.2,286047006.9,N
1505852215.0,286047009.0,N
1505852215.9,286047009.0,N
1505852235.8,286047006.6,N
1505852255.6,286047006.5,N
1505852275.4,286047009.6,N
1505852295.3,286047012.0,N
1505852315.1,286047011.5,N
1505852316.0,286047011.5,N
1505852335.8,286047009.8,N
1505852355.7,286047010.3,N
1505852375.5,286047013.4,Y
1505852395.3,286047008.4,P
1505852415.2,286047007.8,P
1505852435.9,286047008.4,P
1505852455.7,286047007.9,Y
1505852475.6,286046998.0,P
1505852495.4,286046999.1,N
1505852515.2,286046998.8,N
1505852535.1,286047014.4,Y
1505852536.0,286047014.4,P
1505852555.8,286047000.8,N
1505852575.6,286047000.1,N
1505852595.5,286047000.7,N
1505852615.3,286047000.4,N
1505852635.1,286046996.7,N
1505852655.9,286046996.9,N
1505852675.7,286046999.4,N
1505852695.5,286046996.9,N
1505852715.3,286047000.1,N
1505852735.2,286046997.0,N
1505852755.0,286046995.6,N
1505852755.9,286046995.6,N
1505852775.7,286046991.9,N
1505852795.6,286046996.4,N
1505852815.4,286047101.5,Y
1505852835.2,286047102.0,P
1505852855.1,286047103.1,N
1505852856.0,286047103.1,N
1505852875.8,286047101.6,N
1505852895.6,286047099.4,N
1505852915.5,286047101.3,N
1505852935.3,286047110.0,Y
1505852955.1,286047023.5,P
1505852975.9,286046727.4,P
1505852995.7,286047034.7,N
1505853015.5,286047033.4,N
1505853035.4,286047033.7,N
1505853055.2,286047031.9,N
1505853075.0,286047033.5,N
1505853075.9,286047033.5,N
1505853095.8,286047028.9,N
1505853115.6,286047031.6,N
1505853135.4,286047041.2,N
1505853155.3,286047030.2,N
1505853175.1,286047033.1,N
1505853176.0,286047033.1,N
1505853195.8,286047035.8,N
1505853215.7,286047024.3,N
1505853235.5,286046668.6,Y
1505853255.3,286047033.9,P
1505853275.2,286047032.8,P
1505853295.9,286047034.2,P
1505853315.7,286047032.2,Y
1505853335.6,286047004.5,P
1505853355.4,286047005.3,N
1505853375.2,286047007.6,N
1505853395.0,286047015.5,N
1505853396.0,286047015.5,N
1505853415.8,286047018.5,N
1505853435.6,286046435.2,Y
1505853455.5,286046422.0,P
1505853475.3,286046422.0,N
1505853495.1,286046423.0,N
1505853515.8,286046424.6,N
1505853535.7,286046423.3,N
1505853555.5,286046328.3,Y
1505853575.4,286046807.2,P
1505853595.2,286046807.3,N
1505853615.0,286046775.3,N
1505853615.9,286046775.3,N
1505853635.7,286046773.0,N
1505853655.6,286046854.5,N
1505853675.4,286046852.5,N
1505853695.2,286046855.4,N
1505853715.1,286046853.9,N
1505853716.0,286046853.9,N
1505853735.8,286046850.6,N
1505853755.6,286046853.7,N
1505853775.5,286047029.6,N
1505853795.3,286047029.9,N
1505853815.1,286047025.4,N
1505853835.9,286047517.7,Y
1505853855.7,286047672.7,P
1505853875.5,286047669.7,N
1505853895.4,286047667.4,N
1505853915.2,286047666.0,N
1505853935.0,286047665.4,N
1505853935.9,286047665.4,N
1505853955.8,286047666.5,N
1505853975.6,286047665.8,N
1505853995.4,286047662.1,N
1505854015.3,286047661.0,N
1505854035.1,286047660.1,N
1505854036.0,286047660.1,N
1505854055.8,286047453.4,N
1505854075.7,286047671.6,Y
1505854095.5,286046857.7,P
1505854115.3,286046857.6,N
1505854135.1,286046858.4,N
1505854155.9,286046534.1,N
1505854175.7,286046533.2,N
1505854195.5,286046530.6,N
1505854215.4,286046528.4,N
1505854235.2,286046530.2,N
1505854255.0,286046529.6,N
1505854255.9,286046529.6,N
1505854275.8,286047094.8,N
1505854295.6,286047098.3,N
1505854315.4,286047098.1,N
1505854335.3,286047094.7,N
1505854355.1,286047095.5,N
1505854356.0,286047095.5,N
1505854375.8,286047096.0,N
1505854395.7,286047096.4,N
1505854415.5,286047106.2,N
1505854435.3,286047057.2,N
1505854455.1,286047053.2,N
1505854475.9,286047054.4,N
1505854495.7,286047057.1,N
1505854515.5,286047056.5,N
1505854535.4,286047054.8,N
1505854555.2,286047055.4,N
1505854575.0,286047054.1,N
1505854575.9,286047054.1,N
1505854595.8,286047056.0,N
1505854615.6,286047055.1,N
1505854635.4,286047548.0,N
1505854655.3,286047056.6,N
1505854675.1,286047093.6,N
1505854676.0,286047093.6,N
1505854695.8,286047093.1,N
1505854715.7,286047094.1,N
1505854735.5,286047094.1,N
1505854755.3,286047097.3,N
1505854775.1,286047101.7,N
1505854795.9,286047104.6,N
